Regional Weather Roundup
Issued by NWS Upton, NY

Home | Current Version | Previous Version | Text Only | Print | Product List | Glossary On
Versions: 1 2 3 4 5 6 7 8 9 10 11 12 13 14 15 16 17 18 19 20 21 22 23 24 25 26 27 28 29 30 31 32 33 34 35 36 37 38 39 40 41 42 43 44 45 46 47 48 49 50
000
ASUS41 KOKX 011604
RWROKX

REGIONAL WEATHER ROUNDUP
NATIONAL WEATHER SERVICE NEW YORK NY
1200 PM EDT TUE SEP 01 2015

NOTE: "FAIR" INDICATES FEW OR NO CLOUDS BELOW 12,000 FEET WITH NO
SIGNIFICANT WEATHER AND/OR OBSTRUCTIONS TO VISIBILITY.

NYZ071-072-176-178-NJZ106-104-011700-
NEW YORK CITY METRO AREA


CITY           SKY/WX    TMP DP  RH WIND       PRES   REMARKS
CENTRAL PARK   MOSUNNY   84  63  49 VRB5      30.08F
LAGUARDIA APRT MOSUNNY   83  62  49 E9        30.05F
KENNEDY INTL   MOSUNNY   86  62  44 N3        30.06F
NEWARK/LIBERTY MOSUNNY   85  63  47 VRB3      30.05F
BRNX BOT. GARD   N/A     81  63  54 E5        30.07F
TETERBORO      SUNNY     85  59  41 NE6       30.04F
$$

NYZ177-179-078>081-011700-
LONG ISLAND NEW YORK

CITY           SKY/WX    TMP DP  RH WIND       PRES   REMARKS
FARMINGDALE    SUNNY     85  62  46 VRB6      30.05F
ISLIP          MOSUNNY   85  62  46 N10       30.03F
SHIRLEY        SUNNY     85  62  46 VRB5      30.05F
WESTHAMPTON    SUNNY     86  62  44 NE8       30.06F
MONTAUK POINT    N/A     80  63  55 NE7       30.06F
$$

NYZ052-065-067-011700-
HUDSON VALLEY

CITY           SKY/WX    TMP DP  RH WIND       PRES   REMARKS
WHITE PLAINS   MOSUNNY   84  60  44 E7        30.06F
NEWBURGH       MOSUNNY   81  66  61 N8        30.09F
MONTGOMERY     SUNNY     82  64  54 N7        30.08S
POUGHKEEPSIE   MOSUNNY   83  63  50 N5        30.06F
ALBANY         MOSUNNY   81  64  56 VRB5      30.07F
$$

NJZ001-105-106-008-010-013-015-019>022-104-011700-
NEW JERSEY

CITY           SKY/WX    TMP DP  RH WIND       PRES   REMARKS
NEWARK/LIBERTY MOSUNNY   85  63  47 VRB3      30.05F
TETERBORO      SUNNY     85  59  41 NE6       30.04F
CALDWELL       PTSUNNY   84  63  49 NE9       30.06F
MORRISTOWN     PTSUNNY   86  64  48 E6        30.06F
SOMERVILLE     MOSUNNY   87  63  44 VRB5      30.04S
SUSSEX         MOSUNNY   80  65  59 N5        30.08F
ANDOVER          N/A     80  66  62 VRB3      30.09F
TRENTON        SUNNY     86  65  49 N8        30.05F
MILLVILLE      SUNNY     87  67  51 VRB5      30.06S HX  90
ATLANTIC CITY  SUNNY     88  67  49 MISG      30.05F HX  91
WRIGHTSTOWN    SUNNY     86  69  57 VRB1      30.02F HX  90
TOMS RIVER     PTSUNNY   86  68  54 E6        30.05F
BELMAR         MOSUNNY   82  64  54 E9        30.06S
$$

PAZ047>061-062-071-011700-
EASTERN PENNSYLVANIA

CITY           SKY/WX    TMP DP  RH WIND       PRES   REMARKS
PHILADELPHIA   SUNNY     89  65  44 E6        30.05F HX  91
ALLENTOWN      MOSUNNY   85  65  51 N6        30.08F
SCRANTON       MOSUNNY   79  66  64 VRB3      30.10F
$$

CTZ002-004>006-009-010-012-RIZ004-006-007-MAZ004-011-015-011700-
SOUTHERN NEW ENGLAND
 IN CT

CITY           SKY/WX    TMP DP  RH WIND       PRES   REMARKS
BRADLEY INTL   MOSUNNY   82  60  47 N7        30.06S
HARTFORD       SUNNY     83  60  45 N10       30.05F
DANBURY        SUNNY     82  60  47 NE9       30.08F
WTRBRY/OXFORD  NOT AVBL
BRIDGEPORT     SUNNY     82  63  52 SE9       30.04F
MERIDEN        MOSUNNY   86  61  42 N7        30.05F
NEW HAVEN      MOSUNNY   85  60  42 N9        30.04F
CHESTER        NOT AVBL
GROTON         SUNNY     84  61  45 CALM      30.04S
WILLIMANTIC    SUNNY     82  57  42 NE8       30.06S

 IN RI

CITY           SKY/WX    TMP DP  RH WIND       PRES   REMARKS
PROVIDENCE     MOSUNNY   81  58  45 VRB3      30.05F
BLOCK ISLAND   SUNNY     77  66  69 E8        30.06F
WESTERLY       SUNNY     80  63  55 SE10      30.05S

 IN MA

CITY           SKY/WX    TMP DP  RH WIND       PRES   REMARKS
BOSTON         MOSUNNY   77  62  59 SE12      30.06S
WORCESTER      SUNNY     78  57  48 VRB6      30.09F
WESTFIELD      MOSUNNY   82  57  42 E8        30.06F
PROVINCETOWN     N/A     73  63  68 NE6       30.06F
NANTUCKET      SUNNY     79  63  57 NE10      30.04S
$$

ANZ330-335-338-340-345-350-353-355-011700-
COASTAL MARINE OBSERVATIONS


STATION/POSITION TIME  SKY/WX   TEMP    WIND        PRES    VSBY  WAVE
                                AIR SEA DIR/SP/G                  HT/PER
                 (UTC)          (F)     (DEG/KT/KT) (MB)    (MI)  (FT/S)
NY HARB ENTRANCE 1450            76 76   30/  4/  6 1017.5          2/ 9
4S FIRE IS       NOT AVBL
20S FIRE ISLAND  1450            74 75   40/ 10/ 10 1017.4          3/ 6
GREAT SOUTH BAY  1500            78 78  110/  8/  8   N/A
23SW MTP         1550            72 72   30/  8/  8 1017.3          2/ 6
HUDSON CANYON    NOT AVBL
KINGS POINT      1500            80 74   40/  2/  7 1017.2
EXECUTION ROCKS  1500            76      80/  8/  8   N/A
CENTRAL LI SOUND NOT AVBL
EASTERN LI SOUND 1500            76 72   60/  4/  4   N/A
ROBBINS REEF     1500            79     360/  2/  3 1016.8
$$


>>>>>>>>>>>>>>>>>>>>>>>>>>>> KEY <<<<<<<<<<<<<<<<<<<<<<<<<<<
>                                                          <
>     SKY/WX - SKY CONDITION/PRESENT WEATHER               <
>     TMP    - TEMPERATURE IN FAHRENHEIT                   <
>     DP     - DEWPOINT IN FAHRENHEIT                      <
>     RH     - RELATIVE HUMIDITY IN PERCENT                <
>     WIND   - DIRECTION AND SPEED IN MPH                  <
>     PRES   - MEAN SEA LEVEL PRESSURE IN INCHES OF HG     <
>     WCI    - WIND CHILL INDEX                            <
>     VSB    - VISIBILITY IN MILES                         <
>     HX     - HEAT INDEX                                  <
>     TC     - TEMPERATURE IN CELSIUS                      <
>     VRB    - VARIABLE WIND DIRECTION                     <
>                                                          <
>>>>>>>>>>>>>>>>>>>>>>>>>>>> KEY <<<<<<<<<<<<<<<<<<<<<<<<<<<





USA.gov is the U.S. government's official web portal to all federal, state and local government web resources and services.